Location: Newark
(42.8481°N, 0.4872°E)
Time: 08:34:20
(UTC+00:00)

A-11 Canister half - Pass Details

Date: 31 October 2020
Orbit: 1516 x 1684 km, 47.2° (Epoch: 04 December)

Event Time Altitude Azimuth Distance (km) Brightness Sun altitude
Rises 17:21:22 0° 196° (SSW) 4,913 12.1 -6.1°
Reaches altitude 10° 17:25:04 10° 186° (S) 3,935 11.4 -6.8°
Maximum altitude 17:33:20 30° 131° (SE) 2,692 10.0 -8.3°
Enters shadow 17:41:11 11° 77° (ENE) 3,830 10.4 -9.7°
